Location: ?????
(44.4284°N, 135.2222°E)
Time: 12:46:23
(UTC+00:00)

SeaSat 1 - Pass Details

Date: 19 May 2025
Orbit: 738 x 740 km, 108.0° (Epoch: 19 June)

Event Time Altitude Azimuth Distance (km) Brightness Sun altitude
Exits shadow 13:18:34 53° 175° (S) 910 2.5 -22.0°
Maximum altitude 13:19:41 74° 243° (WSW) 771 2.4 -22.0°
Drops below altitude 10° 13:24:36 10° 330° (NNW) 2,257 6.0 -22.4°
Sets 13:26:52 0° 332° (NNW) 3,184 7.2 -22.5°
